Weather History for Dallas/Ft Worth, TX

Change the Weather History Date:

Wednesday, October 16, 2013

  Actual Average Record
Temperature  
Mean Temperature 60 °F 68 °F  
Max Temperature 66 °F 78 °F 93 °F (1972)
Min Temperature 54 °F 57 °F 39 °F (1966)
Degree Days  
Heating Degree Days 5 2  
Month to date heating degree days 6 19  
Since 1 July heating degree days 6 25  
Cooling Degree Days 0 4  
Month to date cooling degree days 133 97  
Year to date cooling degree days 2893 2674  
Growing Degree Days 10 (Base 50)    
Moisture  
Dew Point 48 °F    
Average Humidity 69    
Maximum Humidity 93    
Minimum Humidity 45    
Precipitation  
Precipitation 0.21 in 0.15 in 2.92 in (1942)
Month to date precipitation 1.70 1.94  
Year to date precipitation 23.09 28.60  
Snow  
Snow 0.00 in 0.00 in 0.00 in ()
Month to date snowfall 0.0 0.0  
Since 1 July snowfall 0.0 0.0  
Since 1 September snowfall 0.0 0.0  
Snow Depth 0.00 in    
Sea Level Pressure  
Sea Level Pressure 30.05 in    
Wind  
Wind Speed 12 mph (North)    
Max Wind Speed 21 mph    
Max Gust Speed 27 mph    
Visibility 9 miles    
Events Rain    
T = Trace of Precipitation, MM = Missing Value Source: NWS Daily Summary

Daily Weather History Graph

Daily Weather History Graph

Search for Another Location

Airport:

Trip Planner

Search our weather history database for the weather conditions in past years. The results will help you decide how hot, cold, wet, or windy it might be!

Date:

Astronomy

Oct. 16, 2013 Rise Set
Actual Time 7:33 AM CDT 6:53 PM CDT
Civil Twilight 7:08 AM CDT 7:18 PM CDT
Nautical Twilight 6:39 AM CDT 7:46 PM CDT
Astronomical Twilight 6:10 AM CDT 8:15 PM CDT
Moon 5:28 PM CDT (10/16) 5:09 AM CDT (10/16)
Length of Visible Light 12h 09m
Length of Day
11h 20m
Waxing Gibbous, 94% of the Moon is Illuminated
Oct 16
Waxing Gibbous
Oct 18
Full
Oct 26
Last Quarter
Nov 3
New
Nov 9
First Quarter

Hourly Weather History & Observations

Time (CDT) Temp. Dew Point Humidity Pressure Visibility Wind Dir Wind Speed Gust Speed Precip Events Conditions
12:26 AM 55.0 °F 51.1 °F 86% 30.03 in 10.0 mi NNE 13.8 mph - 0.02 in Rain Light Rain
12:53 AM 55.0 °F 51.1 °F 86% 30.03 in 10.0 mi North 12.7 mph - 0.02 in Rain Light Rain
1:29 AM 55.0 °F 52.0 °F 89% 30.05 in 8.0 mi North 13.8 mph - 0.03 in Rain Light Rain
1:53 AM 55.0 °F 52.0 °F 89% 30.02 in 7.0 mi North 13.8 mph - 0.05 in Rain Rain
2:51 AM 53.6 °F 51.8 °F 94% 30.03 in 8.0 mi NNE 16.1 mph - 0.11 in Rain Rain
2:53 AM 54.0 °F 51.1 °F 90% 30.02 in 8.0 mi NNE 16.1 mph - 0.11 in Rain Light Rain
3:20 AM 54.0 °F 51.1 °F 90% 30.03 in 10.0 mi NNE 13.8 mph - 0.03 in Rain Light Rain
3:53 AM 55.0 °F 51.1 °F 86% 30.01 in 10.0 mi North 18.4 mph 27.6 mph 0.03 in Rain Light Rain
4:53 AM 54.0 °F 51.1 °F 90% 30.03 in 5.0 mi NNE 13.8 mph - 0.00 in Rain Light Rain
5:53 AM 54.0 °F 51.1 °F 90% 30.04 in 6.0 mi NNE 15.0 mph - 0.01 in   Light Drizzle
6:43 AM 54.0 °F 51.1 °F 90% 30.06 in 10.0 mi NNE 8.1 mph - 0.01 in   Light Drizzle
6:53 AM 54.0 °F 52.0 °F 93% 30.05 in 8.0 mi NNE 10.4 mph - 0.01 in   Light Drizzle
7:26 AM 55.0 °F 52.0 °F 89% 30.07 in 5.0 mi NNW 5.8 mph - 0.01 in   Light Drizzle
7:53 AM 55.9 °F 53.1 °F 90% 30.06 in 10.0 mi North 10.4 mph - 0.01 in   Overcast
8:53 AM 55.9 °F 52.0 °F 87% 30.08 in 10.0 mi North 13.8 mph - N/A   Overcast
9:36 AM 55.9 °F 51.1 °F 84% 30.10 in 10.0 mi North 12.7 mph - 0.00 in Rain Light Rain
9:53 AM 55.0 °F 48.9 °F 80% 30.10 in 10.0 mi North 12.7 mph - 0.00 in   Overcast
10:53 AM 57.9 °F 48.0 °F 70% 30.09 in 10.0 mi North 13.8 mph 21.9 mph N/A   Overcast
11:53 AM 59.0 °F 46.0 °F 62% 30.09 in 10.0 mi North 13.8 mph - N/A   Mostly Cloudy
12:53 PM 61.0 °F 46.0 °F 58% 30.07 in 10.0 mi NNE 11.5 mph - N/A   Mostly Cloudy
1:53 PM 62.1 °F 46.0 °F 56% 30.05 in 10.0 mi NNE 12.7 mph - N/A   Mostly Cloudy
2:53 PM 63.0 °F 45.0 °F 52% 30.03 in 10.0 mi NNW 12.7 mph - N/A   Mostly Cloudy
3:53 PM 66.0 °F 45.0 °F 47% 30.02 in 10.0 mi North 9.2 mph - N/A   Overcast
4:53 PM 64.9 °F 45.0 °F 48% 30.00 in 10.0 mi North 8.1 mph - N/A   Mostly Cloudy
5:53 PM 64.9 °F 46.0 °F 50% 30.01 in 10.0 mi North 8.1 mph - N/A   Overcast
6:53 PM 64.0 °F 45.0 °F 50% 30.02 in 10.0 mi North 9.2 mph - N/A   Mostly Cloudy
7:53 PM 64.0 °F 45.0 °F 50% 30.03 in 10.0 mi NNW 10.4 mph - N/A   Overcast
8:53 PM 63.0 °F 44.1 °F 50% 30.05 in 10.0 mi NNW 11.5 mph - N/A   Mostly Cloudy
9:53 PM 61.0 °F 44.1 °F 54% 30.07 in 10.0 mi North 10.4 mph - N/A   Mostly Cloudy
10:53 PM 61.0 °F 44.1 °F 54% 30.07 in 10.0 mi NNW 12.7 mph - N/A   Overcast
11:53 PM 57.9 °F 45.0 °F 62% 30.07 in 10.0 mi NNW 13.8 mph - N/A   Scattered Clouds